2001 BJ16 

Epoch 2001 Jan. 31.0 TT = JDT 2451940.5                 Nakano

M 136.80088              (2000.0)            P               Q

n   0.61987504     Peri.  209.97000     +0.94439666     +0.23036123

a   1.3622807      Node   134.67161     -0.19548388     +0.96711766

e   0.1410142      Incl.   19.26414     -0.26438797     +0.10778276

P   1.59           H   18.0           G   0.15           U   *

Residuals in seconds of arc 

010118 608 (3.2+  1.7+)   010125 608  0.2+  1.0-    010131 106  0.2-  0.3-  

010118 608 (3.6+  2.1+)   010125 608  0.0   0.1+    010201 413  0.0   0.1+  

010118 608 (3.6+  1.5+)   010128 046  0.2-  0.8+    010201 413  0.3+  0.3-  

010118 046  0.4+  0.4+    010128 046  0.2-  0.5+    010202 704  0.2+  0.1-  

010118 046 (2.2-  0.1+)   010128 046  0.2+  0.7+    010202 704  0.2-  0.2-  

010118 046  0.2-  1.1+    010128 046  0.6-  0.3+    010202 704  0.3+  0.2+  

010119 046  0.3+  0.4-    010130 587  0.2-  0.7-    010202 704  0.1-  0.6+  

010119 046  1.3+  0.4-    010130 587  0.3+  0.3+    010202 704  0.3+  0.2+  

010119 046  1.3+  0.4-    010130 611  0.7+  0.7-    010202 360  0.4+  0.0   

010119 046  0.3-  0.9+    010130 611  1.6-  0.3-    010202 360  0.1-  0.0   

010120 608  0.8-  0.5-    010130 611  0.2-  0.2-    010202 360  0.4+  0.2-  

010120 608  0.6-  0.8-    010131 611  0.7+  0.2-    010203 704  0.2-  0.3+  

010120 608  1.0-  0.7-    010131 608  0.0   0.2-    010203 704 (2.3+  0.3-) 

010121 608  0.0   0.2+    010131 608  0.2+  0.6-    010203 704  0.5+  0.4+  

010121 608  0.3-  0.1+    010131 608  0.2-  0.2-    010203 704  0.3-  0.0   

010121 608  0.1-  1.0+    010131 106  0.1+  0.2+                            

010125 608  0.1-  0.4-    010131 106  0.6-  0.2+                            

  

NAKANO

         **** Don't distribute anyone except personal use only ****

                (C) Copyright 2001 OAA/ComputingSection

write mail from CFAD0::NAKANO on 2001-02-05 03:44:38(JST).

 





–ß‚è‚Ü‚·B